Flag for U.S.A. Weather past 2 weeks in Des Moines, Iowa, U.S.A.

Now
78 °F

Broken clouds.


Feels Like: 80 °F
Forecast: 66 / 82 °F
Wind: 9 mph from West

Location: Des Moines International Airport

Current Time: Aug 30, 2014 at 1:22:34 PM

Latest Report: Aug 30, 2014 at 11:54 AM


Visibility: 10 mi

Pressure: 29.88 "Hg

Humidity: 71%

Dew point: 68 °F

Location of Des MoinesLocation

Historic Weather in Des Moines — Graph

°F

Des Moines temperature yesterday

Maximum temperature yesterday: 84 °F (at 11:54 AM)
Minimum temperature yesterday: 69 °F (at 12:56 AM)
Average temperature yesterday: 73 °F

Past Weeks' High & Low Weather Summary

 TemperatureHumidityPressure
High92 °F (Aug 24, 1:54 PM)97% (Aug 17, 8:01 AM)30.16 "Hg (Aug 17, 8:01 AM)
Low65 °F (Aug 17, 4:54 AM)46% (Aug 19, 2:54 PM)29.70 "Hg (Aug 19, 5:54 AM)
Average76 °F78%29.89 "Hg
* Reported Aug 15 11:54 AM — Aug 30 11:54 AM, Des Moines, Weather by CustomWeather, © 2014

Note: Actual official high and low records may vary slightly from our data, if they occured in-between our weather recording intervals... More about our weather records

Advertising

Des Moines weather history for previous 24 hours

 ConditionsComfort  
Time TempWeatherWind HumidityBarometerVisibility
11:54 AM
Aug 30
78 °FBroken clouds.9 mph71%29.88 "Hg10 mi
10:54 AM75 °FPartly sunny.9 mph74%29.88 "Hg10 mi
10:04 AM72 °FPartly sunny.7 mph78%29.89 "Hg10 mi
9:54 AM72 °FMostly cloudy.8 mph81%29.87 "Hg10 mi
8:54 AM69 °FLow clouds.8 mph90%29.86 "Hg9 mi
7:54 AM68 °FLow clouds.9 mph90%29.85 "Hg7 mi
6:59 AM67 °FPartly cloudy.5 mph90%29.86 "Hg10 mi
5:54 AM67 °FMostly cloudy.5 mph90%29.82 "Hg10 mi
4:54 AM67 °FPassing clouds.5 mph90%29.81 "Hg10 mi
3:54 AM67 °FOvercast.3 mph93%29.80 "Hg10 mi
2:54 AM68 °FPartly cloudy.6 mph90%29.78 "Hg10 mi
1:52 AM69 °FMostly cloudy.13 mph90%29.77 "Hg10 mi
12:54 AM69 °FMostly cloudy.9 mph93%29.77 "Hg10 mi
12:02 AM70 °FLight rain. Overcast.9 mph90%29.81 "Hg10 mi
11:54 PM
Aug 29
70 °FLight rain. Mostly cloudy.9 mph90%29.78 "Hg7 mi
10:54 PM70 °FPartly cloudy.6 mph87%29.77 "Hg10 mi
9:54 PM71 °FMostly cloudy.6 mph87%29.76 "Hg10 mi
8:54 PM71 °FLight rain. Mostly cloudy.6 mph90%29.76 "Hg10 mi
7:54 PM72 °FBroken clouds.7 mph91%29.75 "Hg10 mi
6:54 PM72 °FCloudy.6 mph87%29.75 "Hg10 mi
5:54 PM72 °FLight rain. Cloudy.7 mph84%29.76 "Hg10 mi
4:54 PM74 °FLight rain. More clouds than sun.8 mph85%29.78 "Hg7 mi
3:54 PM77 °FThunderstorms. Mostly cloudy.8 mph82%29.76 "Hg7 mi
1:54 PM82 °FMostly cloudy.13 mph65%29.78 "Hg10 mi
Weather by CustomWeather, © 2014

See weather overviewHow to use our weather pages